Simultaneous Nadir Overpasses (SNOs) Predictions

Prediction of SNOs between METOP-A and NOAA-19 Satellite Orbit:

Table of predicted SNOs for the next 14.0 days since TLE Epoch: 11/2/2018
Index Date (METOP-A) Time (METOP-A) Lat,Lon (METOP-A) SZA (METOP-A ) Date (NOAA-19) Time (NOAA-19) Lat,Lon (NOAA-19) SZA (NOAA-19 ) Distance(km) Time Diff (sec)
1 11/10/2018 03:13:48 -79.26, -36.92 83.33 11/10/2018 03:12:40 -79.24, -39.80 83.48 59.62 68
2 11/10/2018 04:04:34 79.06, 128.99 96.43 11/10/2018 04:03:34 79.07, 128.93 96.42 1.52 60
3 11/10/2018 04:55:15 -79.06, -63.67 83.57 11/10/2018 04:54:35 -79.05, -63.70 83.58 1.26 40
4 11/10/2018 05:45:56 79.04, 103.50 96.42 11/10/2018 05:45:35 79.07, 103.44 96.44 3.53 21
5 11/10/2018 06:36:37 -79.04, -89.15 83.57 11/10/2018 06:36:36 -79.05, -89.20 83.56 1.71 1
6 11/10/2018 07:27:17 79.05, 78.27 96.46 11/10/2018 07:27:35 79.03, 78.20 96.44 2.54 18
7 11/10/2018 08:17:59 -79.02,-114.63 83.58 11/10/2018 08:18:37 -79.05,-114.70 83.54 3.92 38
8 11/10/2018 09:08:39 79.03, 52.78 96.45 11/10/2018 09:09:36 79.03, 52.71 96.46 1.59 57




NCC Satellite Simultaneous Nadir Overpasses (SNOs) Prediction Service
